This is the latest recevied weather packets stored in our database for station/object KE0TNI-13. If no packets are shown the sender has not sent any weather packets the latest 10 day(s).
| Time | Temp. | Humidity | Pressure | Rain* | Wind** | Luminosity | Snow |
|---|---|---|---|---|---|---|---|
| 1777908335 | 10° C | 38% | 1016.5 hPa | 0 mm | - | 187 W/m² | - |
| 1777908032 | 10° C | 37% | 1016.6 hPa | 0 mm | - | 175 W/m² | - |
| 1777907728 | 9.44° C | 37% | 1016.5 hPa | 0 mm | - | 162 W/m² | - |
| 1777907428 | 9.44° C | 37% | 1016.6 hPa | 0 mm | - | 152 W/m² | - |
| 1777907125 | 9.44° C | 37% | 1016.5 hPa | 0 mm | - | 138 W/m² | - |
| 1777906823 | 9.44° C | 37% | 1016.9 hPa | 0 mm | - | 133 W/m² | - |
| 1777906521 | 9.44° C | 36% | 1016.7 hPa | 0 mm | - | 125 W/m² | - |
| 1777906221 | 9.44° C | 36% | 1016.6 hPa | 0 mm | - | 132 W/m² | - |
| 1777905918 | 9.44° C | 36% | 1016.6 hPa | 0 mm | - | 124 W/m² | - |
| 1777905614 | 9.44° C | 36% | 1016.6 hPa | 0 mm | - | 117 W/m² | - |
| 1777905311 | 9.44° C | 35% | 1016.5 hPa | 0 mm | - | 119 W/m² | - |
| 1777905009 | 9.44° C | 34% | 1016.3 hPa | 0 mm | - | 111 W/m² | - |
| 1777904706 | 9.44° C | 34% | 1016.6 hPa | 0 mm | - | 113 W/m² | - |
| 1777904403 | 9.44° C | 34% | 1016.7 hPa | 0 mm | - | 125 W/m² | - |
| 1777904100 | 8.89° C | 34% | 1016.5 hPa | 0 mm | - | 123 W/m² | - |
| 1777903796 | 8.89° C | 35% | 1016.5 hPa | 0 mm | - | 109 W/m² | - |
| 1777903493 | 8.89° C | 34% | 1016.7 hPa | 0 mm | - | 88 W/m² | - |
| 1777903189 | 8.89° C | 34% | 1016.7 hPa | 0 mm | - | 73 W/m² | - |
| 1777902886 | 8.33° C | 35% | 1016.7 hPa | 0 mm | - | 70 W/m² | - |
| 1777902583 | 8.33° C | 36% | 1016.7 hPa | 0 mm | - | 61 W/m² | - |
| 1777902280 | 8.33° C | 36% | 1016.2 hPa | 0 mm | - | 55 W/m² | - |
| 1777901978 | 7.78° C | 36% | 1016.3 hPa | 0 mm | - | 58 W/m² | - |
| 1777901675 | 7.78° C | 36% | 1016.5 hPa | 0 mm | - | 51 W/m² | - |
| 1777901372 | 7.78° C | 36% | 1016.5 hPa | 0 mm | - | 34 W/m² | - |
| 1777901070 | 8.33° C | 34% | 1016.2 hPa | 0 mm | - | 26 W/m² | - |
* Rain latest hour (hover to see other rain measurements)
** Current wind speed in m/s (hover to see current wind gust speed)